Date String (YYYY-MM-DD hh:mm:ss) UTC,Instrument flags,Ambient pressure (hPa),Sample flow (lpm),Bypass flow (lpm),Sample temperature (°C),Ambient temperature (°C),ASC tube jacket temperature (°C),LED temperature (°C),Box temperature (°C),Sample RH (%),Span deviation,Mass concentration (μg/m³),Mass concentration (μg/m³),Mass concentration (μg/m³)
DateTimeUTC,F1_M11,P_M11,Q1_M11,Q2_M11,T1_M11,T2_M11,T3_M11,T4_M11,T5_M11,U1_M11,ZSPAN_M11,X0_M11,X2_M11,X1_M11
2022-02-24 00:00:00,,0822.1,5.01,0.00,22.9,22.6,00.0,31.9,24.7,03.3,0000.2,0008.83,0006.00,0005.64
2022-02-24 00:01:00,,0822.1,4.99,0.00,23.0,23.2,00.0,31.9,24.9,03.2,0000.9,0008.85,0006.02,0005.64
2022-02-24 00:02:00,,0822.2,5.00,0.00,23.1,23.2,00.0,31.9,25.0,03.2,0000.9,0008.84,0006.03,0005.64
2022-02-24 00:03:00,,0822.3,5.00,0.00,23.1,23.0,00.0,31.9,25.0,03.2,0001.6,0008.84,0006.03,0005.65
2022-02-24 00:04:00,,0822.3,5.01,0.00,23.1,22.8,00.0,31.9,24.9,03.2,0001.4,0008.89,0006.05,0005.66
2022-02-24 00:05:00,,0822.3,5.00,0.00,23.0,22.7,00.0,31.9,24.9,03.2,0001.7,0008.95,0006.06,0005.68
2022-02-24 00:06:00,,0822.4,5.00,0.00,23.0,22.5,00.0,31.9,24.8,03.2,0002.5,0009.04,0006.08,0005.68
2022-02-24 00:07:00,,0822.3,5.00,0.00,23.0,22.4,00.0,31.9,24.8,03.2,0002.7,0009.06,0006.10,0005.70
2022-02-24 00:08:00,,0822.4,5.00,0.00,23.0,22.3,00.0,31.9,24.8,03.1,0003.0,0009.06,0006.12,0005.73
2022-02-24 00:09:00,,0822.5,5.01,0.00,22.9,22.2,00.0,31.9,24.7,03.1,0002.7,0009.42,0006.18,0005.76
2022-02-24 00:10:00,,0822.4,5.00,0.00,22.9,22.1,00.0,31.9,24.7,03.2,0002.8,0009.66,0006.21,0005.79
2022-02-24 00:11:00,,0822.5,4.99,0.00,22.9,22.0,00.0,31.9,24.6,03.2,0002.8,0009.60,0006.22,0005.80
2022-02-24 00:12:00,,0822.5,5.01,0.00,22.9,22.0,00.0,31.9,24.6,03.3,0002.5,0009.46,0006.18,0005.81
2022-02-24 00:13:00,,0822.4,5.01,0.00,22.8,21.9,00.0,31.8,24.6,03.3,0002.5,0009.64,0006.18,0005.81
2022-02-24 00:14:00,,0822.5,5.00,0.00,22.8,21.9,00.0,31.8,24.5,03.3,0002.5,0009.68,0006.20,0005.81
2022-02-24 00:15:00,,0822.5,5.00,0.00,22.8,21.8,00.0,31.8,24.5,03.3,0002.4,0009.76,0006.21,0005.81
2022-02-24 00:16:00,,0822.5,5.00,0.00,22.7,21.8,00.0,31.8,24.5,03.3,0002.2,0009.98,0006.22,0005.80
2022-02-24 00:17:00,,0822.5,5.02,0.00,22.7,21.7,00.0,31.8,24.4,03.4,0001.3,0010.27,0006.25,0005.78
2022-02-24 00:18:00,,0822.5,5.00,0.00,22.7,21.9,00.0,31.8,24.4,03.4,0000.9,0010.36,0006.27,0005.77
2022-02-24 00:19:00,,0822.5,5.00,0.00,22.8,22.4,00.0,31.8,24.6,03.4,0000.5,0010.56,0006.29,0005.75
2022-02-24 00:20:00,,0822.5,4.99,0.00,22.9,23.1,00.0,31.8,24.8,03.4,0000.5,0011.15,0006.28,0005.72
2022-02-24 00:21:00,,0822.4,5.01,0.00,23.0,23.2,00.0,31.9,24.9,03.3,0000.4,0011.15,0006.30,0005.69
2022-02-24 00:22:00,,0822.3,4.98,0.00,23.0,23.0,00.0,31.9,24.9,03.4,0000.3,0011.25,0006.32,0005.68
2022-02-24 00:23:00,,0822.3,5.01,0.00,23.0,22.8,00.0,31.9,24.9,03.4,0000.4,0011.35,0006.33,0005.65
2022-02-24 00:24:00,,0822.3,5.00,0.00,23.0,22.6,00.0,31.9,24.8,03.4,0000.5,0011.21,0006.30,0005.64
2022-02-24 00:25:00,,0822.3,5.00,0.00,22.9,22.4,00.0,31.8,24.8,03.4,0000.4,0011.23,0006.29,0005.63
2022-02-24 00:26:00,,0822.3,5.00,0.00,22.9,22.3,00.0,31.8,24.7,03.4,0001.1,0011.16,0006.28,0005.63
2022-02-24 00:27:00,,0822.3,5.01,0.00,22.9,22.2,00.0,31.8,24.7,03.4,0001.9,0011.70,0006.28,0005.61
2022-02-24 00:28:00,,0822.4,5.00,0.00,22.8,22.1,00.0,31.8,24.6,03.4,0002.2,0011.35,0006.25,0005.60
2022-02-24 00:29:00,,0822.4,4.99,0.00,22.8,22.0,00.0,31.8,24.6,03.4,0002.4,0011.73,0006.24,0005.59
2022-02-24 00:30:00,,0822.3,5.01,0.00,22.8,21.9,00.0,31.8,24.5,03.4,0002.6,0011.57,0006.18,0005.56
2022-02-24 00:31:00,,0822.3,4.99,0.00,22.8,21.9,00.0,31.8,24.5,03.5,0002.0,0010.78,0006.10,0005.54
2022-02-24 00:32:00,,0822.3,5.00,0.00,22.7,21.8,00.0,31.8,24.5,03.5,0002.2,0010.33,0006.06,0005.53
2022-02-24 00:33:00,,0822.3,5.01,0.00,22.7,21.7,00.0,31.7,24.4,03.5,0001.9,0010.31,0006.04,0005.51
2022-02-24 00:34:00,,0822.3,5.00,0.00,22.7,21.9,00.0,31.7,24.4,03.5,0002.0,0010.43,0006.06,0005.50
2022-02-24 00:35:00,,0822.3,5.00,0.00,22.8,22.4,00.0,31.8,24.5,03.5,0002.2,0011.14,0006.08,0005.49
2022-02-24 00:36:00,,0822.3,4.99,0.00,22.9,23.1,00.0,31.8,24.8,03.5,0002.2,0011.45,0006.06,0005.47
2022-02-24 00:37:00,,0822.4,5.01,0.00,23.0,23.2,00.0,31.8,24.9,03.5,0000.7,0011.44,0006.06,0005.45
2022-02-24 00:38:00,,0822.3,5.01,0.00,23.0,22.9,00.0,31.8,24.9,03.5,-000.0,0010.88,0006.02,0005.44
2022-02-24 00:39:00,,0822.2,5.00,0.00,23.0,22.7,00.0,31.8,24.8,03.6,-000.4,0011.01,0006.01,0005.44
2022-02-24 00:40:00,,0822.2,5.00,0.00,22.9,22.5,00.0,31.8,24.8,03.6,0000.2,0010.59,0005.99,0005.44
2022-02-24 00:41:00,,0822.2,4.99,0.00,22.9,22.3,00.0,31.8,24.7,03.6,0000.2,0010.86,0006.02,0005.45
2022-02-24 00:42:00,,0822.3,5.00,0.00,22.9,22.1,00.0,31.8,24.6,03.6,-000.2,0011.29,0006.02,0005.45
2022-02-24 00:43:00,,0822.4,5.00,0.00,22.8,22.0,00.0,31.8,24.6,03.6,-000.4,0011.52,0006.04,0005.45
2022-02-24 00:44:00,,0822.3,5.00,0.00,22.8,21.9,00.0,31.8,24.5,03.6,-000.9,0011.58,0006.03,0005.46
2022-02-24 00:45:00,,0822.3,5.01,0.00,22.7,21.9,00.0,31.8,24.5,03.6,-000.7,0011.53,0005.99,0005.45
2022-02-24 00:46:00,,0822.2,4.99,0.00,22.7,21.8,00.0,31.7,24.4,03.6,-000.7,0010.78,0005.98,0005.47
2022-02-24 00:47:00,,0822.3,5.00,0.00,22.7,21.7,00.0,31.7,24.4,03.6,-001.2,0010.45,0005.97,0005.47
2022-02-24 00:48:00,,0822.4,5.00,0.00,22.7,21.9,00.0,31.7,24.4,03.7,-000.6,0010.54,0005.95,0005.47
2022-02-24 00:49:00,,0822.5,5.00,0.00,22.7,22.6,00.0,31.7,24.5,03.7,-000.1,0010.34,0005.92,0005.46
2022-02-24 00:50:00,,0822.6,5.00,0.00,22.9,23.2,00.0,31.8,24.8,03.6,0000.8,0010.14,0005.90,0005.44
2022-02-24 00:51:00,,0822.5,5.01,0.00,22.9,23.2,00.0,31.8,24.9,03.6,0000.7,0010.08,0005.87,0005.41
2022-02-24 00:52:00,,0822.4,4.99,0.00,22.9,23.0,00.0,31.8,24.9,03.6,0000.9,0009.85,0005.85,0005.40
2022-02-24 00:53:00,,0822.4,5.00,0.00,22.9,22.7,00.0,31.8,24.8,03.7,0001.2,0009.51,0005.84,0005.38
2022-02-24 00:54:00,,0822.5,5.00,0.00,22.9,22.5,00.0,31.8,24.7,03.7,0001.2,0009.58,0005.83,0005.37
2022-02-24 00:55:00,,0822.4,4.99,0.00,22.9,22.3,00.0,31.8,24.7,03.7,0001.5,0009.49,0005.81,0005.36
2022-02-24 00:56:00,,0822.4,5.01,0.00,22.8,22.1,00.0,31.8,24.6,03.7,0001.1,0009.43,0005.80,0005.34
2022-02-24 00:57:00,,0822.4,4.99,0.00,22.8,22.0,00.0,31.8,24.6,03.7,0000.6,0009.44,0005.78,0005.30
2022-02-24 00:58:00,,0822.5,4.99,0.00,22.7,21.9,00.0,31.8,24.5,03.7,0000.5,0009.34,0005.77,0005.28
2022-02-24 00:59:00,,0822.6,5.02,0.00,22.7,21.8,00.0,31.7,24.4,03.7,0000.5,0009.18,0005.75,0005.27
